Date_and_time,latitude,longitude,wind_speed,RelWindDirFrom,WindDirFrom,air_pressure,air_temperature,relative_humidity,Temp,platform_speed_wrt_ground,air_pressure_at_mean_sea_level,platform_orientation
2019-08-25 23:30,50.6304583333333,-96.98078,12.2,15.3,165,978.86,19.1,93,20.16,0.0,1004.68,90.0
2019-08-25 23:40,50.63046,-96.9807833333333,11.9,14.2,166,978.81,19.1,93,20.15,0.0,1004.62,90.0
2019-08-25 23:50,50.6304566666667,-96.9807816666667,12.6,14.8,163,978.65,19.1,96,20.16,0.0,1004.46,90.0
2019-08-26 00:00,50.6304566666667,-96.98078,12.0,15.0,159,978.48,18.9,98,20.17,0.0,1004.28,299.2
2019-08-26 00:10,50.6304583333333,-96.98078,11.5,14.4,155,978.38,18.9,99,20.17,0.0,1004.18,299.2
2019-08-26 00:20,50.6304583333333,-96.98078,10.9,14.7,154,978.32,18.9,99,20.17,0.0,1004.11,299.2
2019-08-26 00:30,50.6304583333333,-96.9807783333333,13.0,16.6,153,978.20,18.8,100,20.16,0.0,1003.99,299.2
2019-08-26 00:40,50.6304583333333,-96.9807783333333,14.5,18.3,146,978.13,18.5,100,20.16,0.0,1003.93,299.2
2019-08-26 00:50,50.6304583333333,-96.98078,14.7,17.7,139,978.00,18.6,100,20.16,0.0,1003.78,299.2
2019-08-26 01:00,50.6304583333333,-96.98078,14.6,19.2,127,977.70,19.2,100,20.14,0.0,1003.45,360.0
2019-08-26 01:10,50.6304583333333,-96.98078,13.9,17.6,127,977.55,19.2,100,20.13,0.0,1003.30,360.0
2019-08-26 01:20,50.63046,-96.98078,13.9,19.2,136,977.48,18.9,100,20.11,0.0,1003.24,360.0
2019-08-26 01:30,50.63046,-96.9807783333333,14.9,19.8,159,977.74,18.5,100,20.11,0.0,1003.52,360.0
2019-08-26 01:40,50.63046,-96.9807783333333,15.2,19.7,158,977.69,18.3,100,20.10,0.0,1003.48,360.0
2019-08-26 01:50,50.63046,-96.9807783333333,13.9,21.7,155,977.75,18.4,100,20.08,0.0,1003.55,360.0
2019-08-26 02:00,50.63046,-96.9807783333333,10.8,16.3,173,978.28,18.3,100,20.07,0.0,1004.09,38.0
2019-08-26 02:10,50.63046,-96.9807783333333,9.1,13.1,180,978.57,18.2,100,20.07,0.0,1004.39,38.0
2019-08-26 02:20,50.6304583333333,-96.98078,7.9,12.1,191,978.69,18.1,100,20.10,0.0,1004.52,38.0
2019-08-26 02:30,50.63046,-96.9807733333333,6.6,10.3,190,978.72,18.0,100,20.11,0.0,1004.58,38.0
2019-08-26 02:40,50.6304583333333,-96.9807716666667,7.8,11.3,180,978.78,17.9,100,20.10,0.0,1004.63,38.0
2019-08-26 02:50,50.6304566666667,-96.9807716666667,10.4,12.8,174,978.71,18.0,100,20.08,0.0,1004.54,38.0
2019-08-26 03:00,50.6304583333333,-96.9807733333333,10.6,13.5,173,978.65,17.9,100,20.06,0.0,1004.48,54.7
2019-08-26 03:10,50.6304583333333,-96.9807733333333,10.4,13.0,173,978.53,17.9,100,20.06,0.0,1004.37,54.7
2019-08-26 03:20,50.63046,-96.9807733333333,10.4,12.5,169,978.44,17.8,100,20.07,0.0,1004.29,54.7
2019-08-26 03:30,50.63046,-96.980775,12.2,17.0,166,978.35,17.9,100,20.08,0.0,1004.21,54.7
2019-08-26 03:40,50.63046,-96.980775,13.4,17.4,164,978.26,17.8,100,20.08,0.0,1004.12,54.7
2019-08-26 03:50,50.6304583333333,-96.980775,14.9,18.5,165,978.27,17.8,100,20.07,0.0,1004.13,54.7
2019-08-26 04:00,50.6304583333333,-96.9807733333333,15.5,18.4,165,978.20,17.8,100,20.07,0.0,1004.06,90.0
2019-08-26 04:10,50.63046,-96.980785,14.7,17.4,164,978.13,17.8,100,20.07,0.0,1003.99,90.0
2019-08-26 04:20,50.6304516666667,-96.9807766666667,15.2,20.4,163,978.03,17.9,100,20.06,0.0,1003.90,90.0
2019-08-26 04:30,50.6304533333333,-96.98078,15.7,19.1,162,978.04,18.0,100,20.04,0.0,1003.90,90.0
2019-08-26 04:40,50.6304516666667,-96.9807783333333,16.1,20.9,162,978.03,18.1,100,20.04,0.0,1003.89,90.0
2019-08-26 04:50,50.6304816666667,-96.98079,16.4,20.8,163,977.91,18.1,100,20.03,0.0,1003.77,90.0
2019-08-26 05:00,50.6304583333333,-96.9807766666667,15.7,19.2,162,977.69,18.0,100,20.02,0.0,1003.55,90.0
2019-08-26 05:10,50.63045,-96.980785,15.1,18.2,164,977.66,18.0,100,20.02,0.0,1003.52,90.0
2019-08-26 05:20,50.63045,-96.9807866666667,14.9,19.9,168,977.70,18.0,100,20.03,0.0,1003.56,90.0
2019-08-26 05:30,50.6304516666667,-96.9807866666667,14.8,18.1,169,977.73,18.0,100,20.03,0.0,1003.59,90.0
2019-08-26 05:40,50.6304533333333,-96.9807866666667,13.0,17.6,170,977.92,17.9,100,20.02,0.0,1003.79,90.0
2019-08-26 05:50,50.630455,-96.980785,11.3,13.5,170,978.00,17.9,100,20.03,0.0,1003.87,90.0
2019-08-26 06:00,50.6304566666667,-96.9807866666667,11.4,14.7,168,977.92,17.9,100,20.05,0.0,1003.79,246.4
2019-08-26 06:10,50.6304566666667,-96.98079,12.4,16.0,164,977.93,17.9,100,20.05,0.0,1003.80,246.4
2019-08-26 06:20,50.6304566666667,-96.98078,12.8,16.1,161,977.87,17.9,100,20.04,0.0,1003.73,246.4
2019-08-26 06:30,50.6304533333333,-96.9807816666667,13.3,16.2,162,977.77,17.9,100,20.03,0.0,1003.63,246.4
2019-08-26 06:40,50.6304516666667,-96.9807766666667,14.4,17.2,162,977.80,17.9,100,20.02,0.0,1003.65,246.4
2019-08-26 06:50,50.6304133333333,-96.9807716666667,14.6,17.8,165,977.76,17.8,100,20.00,0.0,1003.62,246.4
2019-08-26 07:00,50.6304483333333,-96.98077,13.6,17.9,169,977.78,17.8,101,19.99,0.0,1003.65,165.5
2019-08-26 07:10,50.6304583333333,-96.9807716666667,12.4,15.9,176,977.70,17.7,101,19.98,0.0,1003.56,165.5
2019-08-26 07:20,50.630455,-96.9807733333333,10.9,14.8,178,977.58,17.7,101,19.97,0.0,1003.44,165.5
2019-08-26 07:30,50.6304533333333,-96.980775,10.7,13.9,176,977.39,17.8,100,19.95,0.0,1003.25,165.5
2019-08-26 07:40,50.6304533333333,-96.9807766666667,10.9,13.2,172,977.27,17.8,100,19.95,0.0,1003.13,165.5
2019-08-26 07:50,50.6304533333333,-96.9807766666667,10.4,12.9,171,977.16,17.9,100,19.95,0.0,1003.01,165.5
2019-08-26 08:00,50.6304516666667,-96.9807783333333,9.3,12.2,169,977.00,17.9,100,19.97,0.0,1002.85,240.8
2019-08-26 08:10,50.630455,-96.980775,9.8,12.3,168,976.85,17.8,100,19.98,0.0,1002.69,240.8
2019-08-26 08:20,50.6304583333333,-96.9807683333333,10.3,12.9,172,976.84,17.8,100,19.97,0.0,1002.68,240.8
2019-08-26 08:30,50.6304466666667,-96.9807833333333,10.1,12.2,168,976.83,17.8,100,19.97,0.0,1002.67,240.8
2019-08-26 08:40,50.63045,-96.98078,9.9,13.1,169,976.78,17.9,100,19.96,0.0,1002.62,240.8
2019-08-26 08:50,50.6304566666667,-96.9807766666667,7.9,10.5,174,976.85,17.9,100,19.95,0.0,1002.70,240.8
2019-08-26 09:00,50.6304516666667,-96.980775,7.9,9.9,180,977.09,17.9,100,19.96,0.0,1002.95,90.0
2019-08-26 09:10,50.630455,-96.9807816666667,7.0,10.1,186,977.11,17.9,100,19.97,0.0,1002.96,90.0
2019-08-26 09:20,50.6304566666667,-96.9807833333333,7.0,8.9,186,976.99,17.9,100,19.98,0.0,1002.84,90.0
2019-08-26 09:30,50.6304566666667,-96.98078,7.5,10.4,189,976.93,17.9,100,19.98,0.0,1002.77,90.0
2019-08-26 09:40,50.6304566666667,-96.9807783333333,6.1,7.8,185,976.84,17.9,100,19.98,0.0,1002.68,90.0
2019-08-26 09:50,50.63045,-96.9807533333333,5.0,6.7,186,976.73,17.8,100,19.98,0.0,1002.57,90.0
2019-08-26 10:00,50.6304483333333,-96.9807566666667,5.2,6.5,178,976.62,17.8,100,19.98,0.0,1002.46,90.0
2019-08-26 10:10,50.6304516666667,-96.9807583333333,4.3,6.2,199,976.59,17.8,100,19.97,0.0,1002.43,90.0
2019-08-26 10:20,50.630465,-96.9808033333333,3.5,5.1,200,976.46,17.7,100,19.95,0.0,1002.30,90.0
2019-08-26 10:30,50.6304566666667,-96.980785,5.5,7.0,181,976.43,17.6,100,19.94,0.0,1002.28,90.0
2019-08-26 10:40,50.6304466666667,-96.980785,4.5,6.7,185,976.53,17.7,100,19.93,0.0,1002.37,90.0
2019-08-26 10:50,50.6304533333333,-96.9807833333333,2.9,5.1,218,976.59,17.7,100,19.92,0.0,1002.43,90.0
2019-08-26 11:00,50.6304533333333,-96.9807766666667,1.7,3.8,225,976.57,17.6,100,19.92,0.0,1002.41,90.0
2019-08-26 11:10,50.6304516666667,-96.9807766666667,3.7,4.9,196,976.61,17.6,100,19.93,0.0,1002.46,90.0
2019-08-26 11:20,50.6304533333333,-96.9807766666667,4.5,5.8,199,976.55,17.6,100,19.95,0.0,1002.40,90.0
2019-08-26 11:30,50.63045,-96.9807633333333,5.6,7.4,197,976.27,17.5,100,19.95,0.0,1002.12,90.0
2019-08-26 11:40,50.6304533333333,-96.98077,6.4,8.3,197,976.33,17.5,101,19.95,0.0,1002.17,90.0
2019-08-26 11:50,50.630455,-96.98077,5.3,6.9,200,976.38,17.4,101,19.97,0.0,1002.23,90.0
2019-08-26 12:00,50.6304533333333,-96.9807716666667,5.5,7.6,208,976.49,17.4,101,19.99,0.0,1002.35,90.0
2019-08-26 12:10,50.6304533333333,-96.9807733333333,5.1,7.2,202,976.44,17.3,101,19.99,0.0,1002.30,90.0
2019-08-26 12:20,50.6304516666667,-96.9807733333333,5.3,6.4,202,976.49,17.3,101,19.98,0.0,1002.36,90.0
2019-08-26 12:30,50.6304533333333,-96.9807716666667,5.2,8.0,203,976.37,17.2,101,19.96,0.0,1002.24,90.0
2019-08-26 12:40,50.630455,-96.9807733333333,3.8,6.5,209,976.33,17.2,101,19.95,0.0,1002.19,90.0
2019-08-26 12:50,50.630455,-96.9807716666667,3.8,5.6,184,976.45,17.2,102,19.96,0.0,1002.32,90.0
2019-08-26 13:00,50.630455,-96.9807716666667,3.1,4.9,182,976.41,17.2,102,19.96,0.0,1002.28,299.2
2019-08-26 13:10,50.6304566666667,-96.9807716666667,2.4,3.8,198,976.38,17.2,102,19.95,0.0,1002.25,299.2
2019-08-26 13:20,50.6304566666667,-96.9807733333333,3.1,4.0,203,976.50,17.2,102,19.93,0.0,1002.38,299.2
2019-08-26 13:30,50.63048,-96.9807833333333,2.7,3.8,207,976.40,17.2,102,19.93,0.0,1002.27,299.2
2019-08-26 13:40,50.6304516666667,-96.9807916666667,2.8,3.9,220,976.38,17.3,102,19.91,0.0,1002.26,299.2
2019-08-26 13:50,50.6304566666667,-96.9807716666667,3.1,4.6,206,976.58,17.3,102,19.88,0.0,1002.47,299.2
2019-08-26 14:00,50.6304683333333,-96.9808066666667,2.7,4.3,208,976.67,17.4,102,19.88,0.0,1002.55,309.1
2019-08-26 14:10,50.6304466666667,-96.98075,3.6,7.9,293,976.55,17.5,101,19.89,0.0,1002.42,309.1
2019-08-26 14:20,50.63045,-96.980765,5.0,7.7,295,976.42,17.4,101,19.91,0.0,1002.30,309.1
2019-08-26 14:30,50.6304483333333,-96.9807716666667,5.0,8.2,286,976.34,17.3,101,19.91,0.0,1002.23,309.1
2019-08-26 14:40,50.6304483333333,-96.980775,4.6,8.4,278,976.45,17.5,100,19.91,0.0,1002.33,309.1
2019-08-26 14:50,50.63045,-96.9807716666667,5.5,8.8,295,976.47,17.8,100,19.92,0.0,1002.34,309.1
2019-08-26 15:00,50.63045,-96.9807716666667,5.1,9.4,266,976.57,18.1,99,19.92,0.0,1002.42,90.0
2019-08-26 15:10,50.63045,-96.9807733333333,5.5,8.1,274,976.64,18.4,96,19.94,0.0,1002.49,90.0
2019-08-26 15:20,50.6304533333333,-96.98078,6.3,10.2,288,976.63,18.6,90,19.98,0.0,1002.47,90.0
2019-08-26 15:30,50.630455,-96.9807716666667,6.7,10.1,294,976.46,18.8,87,20.01,0.0,1002.27,90.0
2019-08-26 15:40,50.6304416666667,-96.9807716666667,6.9,11.3,288,976.45,19.0,82,20.03,0.0,1002.25,90.0
2019-08-26 15:50,50.630445,-96.9807733333333,5.7,8.9,277,976.60,19.0,83,20.05,0.0,1002.40,90.0
2019-08-26 16:00,50.63046,-96.98079,4.5,7.4,287,976.60,19.2,81,20.10,0.0,1002.39,293.6
2019-08-26 16:10,50.6304366666667,-96.9807716666667,5.0,8.5,285,976.60,19.1,81,20.13,0.0,1002.40,293.6
2019-08-26 16:20,50.6304516666667,-96.980795,5.7,10.7,261,976.71,19.3,79,20.13,0.0,1002.51,293.6
2019-08-26 16:30,50.630455,-96.9807933333333,6.8,9.9,272,976.66,19.2,78,20.11,0.0,1002.46,293.6
2019-08-26 16:40,50.630455,-96.9807933333333,5.6,9.1,267,976.65,19.3,76,20.12,0.0,1002.42,293.6
2019-08-26 16:50,50.6304566666667,-96.9807933333333,6.9,10.4,271,976.63,19.4,76,20.16,0.0,1002.39,293.6
2019-08-26 17:00,50.6304366666667,-96.9807866666667,5.1,8.6,282,976.63,19.4,77,20.16,0.0,1002.38,360.0
2019-08-26 17:10,50.6304483333333,-96.9807866666667,5.6,9.5,284,976.52,19.4,77,20.13,0.0,1002.25,360.0
2019-08-26 17:20,50.6304466666667,-96.9808033333333,4.1,7.3,256,976.52,19.5,76,20.13,0.0,1002.24,360.0
2019-08-26 17:30,50.6304333333333,-96.9807966666667,2.9,5.8,224,976.52,19.6,74,20.18,0.0,1002.22,360.0
2019-08-26 17:40,50.630445,-96.980785,3.0,5.5,237,976.49,19.7,71,20.19,0.0,1002.19,360.0
2019-08-26 17:50,50.630445,-96.980785,3.2,6.2,246,976.40,20.0,70,20.16,0.0,1002.08,360.0
2019-08-26 18:00,50.6304483333333,-96.9807866666667,5.4,7.9,235,976.21,20.0,71,20.10,0.0,1001.89,246.4
2019-08-26 18:10,50.6304216666667,-96.9807066666667,6.5,11.7,247,976.06,20.5,67,20.10,0.0,1001.70,246.4
2019-08-26 18:20,50.6304383333333,-96.9807666666667,5.4,9.3,234,976.02,20.5,67,20.17,0.0,1001.66,246.4
2019-08-26 18:30,50.6304716666667,-96.98079,7.5,12.2,239,976.11,20.4,70,20.25,0.0,1001.75,246.4
2019-08-26 18:40,50.6304366666667,-96.9808166666667,9.1,20.6,250,976.12,20.4,69,20.29,0.0,1001.76,246.4
2019-08-26 18:50,50.630445,-96.9807833333333,10.0,17.9,271,976.05,19.6,74,20.31,0.0,1001.72,246.4
2019-08-26 19:00,50.6304483333333,-96.9807866666667,9.5,15.1,278,976.08,19.4,79,20.45,0.0,1001.76,360.0
2019-08-26 19:10,50.6304416666667,-96.9807866666667,8.0,14.2,283,976.21,19.3,81,20.40,0.0,1001.90,360.0
2019-08-26 19:20,50.6304466666667,-96.98078,8.6,13.5,296,976.17,19.3,82,20.40,0.0,1001.85,360.0
2019-08-26 19:30,50.6304466666667,-96.98078,9.2,13.8,284,976.19,19.0,84,20.44,0.0,1001.89,360.0
2019-08-26 19:40,50.6304483333333,-96.9807783333333,11.0,16.1,299,976.12,18.8,82,20.46,0.0,1001.80,360.0
2019-08-26 19:50,50.630445,-96.9807766666667,9.6,14.5,302,976.23,18.6,84,20.49,0.0,1001.92,360.0
2019-08-26 20:00,50.6304516666667,-96.9807816666667,7.2,13.3,305,976.26,18.7,85,20.49,0.0,1001.93,360.0
2019-08-26 20:10,50.63045,-96.980785,7.2,13.7,316,976.19,18.8,84,20.50,0.0,1001.85,360.0
2019-08-26 20:20,50.6304516666667,-96.9807833333333,8.1,13.0,301,976.09,18.7,83,20.51,0.0,1001.76,360.0
2019-08-26 20:30,50.6304516666667,-96.98078,6.5,10.2,293,976.05,18.7,86,20.47,0.0,1001.72,360.0
2019-08-26 20:40,50.6304816666667,-96.9807733333333,7.4,10.4,296,975.98,18.5,89,20.43,0.0,1001.69,360.0
2019-08-26 20:50,50.6304416666667,-96.9807733333333,6.1,9.5,274,976.08,18.5,90,20.35,0.0,1001.80,360.0
2019-08-26 21:00,50.6304666666667,-96.9807783333333,5.7,10.8,289,976.04,18.7,87,20.34,0.0,1001.76,360.0
2019-08-26 21:10,50.6304583333333,-96.98078,5.9,9.4,285,976.02,18.9,85,20.29,0.0,1001.73,360.0
2019-08-26 21:20,50.6304566666667,-96.98078,5.8,10.7,281,975.97,18.9,85,20.21,0.0,1001.69,360.0
2019-08-26 21:30,50.630455,-96.980775,5.9,9.9,273,975.84,19.1,84,20.33,0.0,1001.56,360.0
2019-08-26 21:40,50.6304566666667,-96.9807766666667,6.3,9.0,267,975.80,19.0,86,20.43,0.0,1001.53,360.0
2019-08-26 21:50,50.6304516666667,-96.9807866666667,7.0,11.3,291,975.76,18.5,93,20.48,0.0,1001.51,360.0
2019-08-26 22:00,50.63046,-96.98078,5.9,11.4,297,975.71,18.5,91,20.45,0.0,1001.45,14.5
2019-08-26 22:10,50.6304716666667,-96.9807833333333,6.8,10.9,295,975.67,19.2,83,20.43,0.0,1001.39,14.5
2019-08-26 22:20,50.6304383333333,-96.9807716666667,7.6,12.3,295,975.58,19.4,79,20.36,0.0,1001.28,14.5
2019-08-26 22:30,50.6304416666667,-96.9807783333333,7.4,11.2,293,975.52,19.4,77,20.38,0.0,1001.23,14.5
2019-08-26 22:40,50.630445,-96.9807783333333,8.0,13.4,294,975.53,19.4,75,20.34,0.0,1001.23,14.5
2019-08-26 22:50,50.6304466666667,-96.98078,7.7,12.5,291,975.70,19.5,73,20.25,0.0,1001.40,14.5
2019-08-26 23:00,50.63046,-96.9807816666667,6.2,11.5,296,975.84,19.5,74,20.39,0.0,1001.54,38.0
2019-08-26 23:10,50.6304633333333,-96.980785,6.0,9.3,293,975.84,19.6,73,20.44,0.0,1001.53,38.0
2019-08-26 23:20,50.63046,-96.9807833333333,4.6,7.9,280,975.87,19.9,72,20.38,0.0,1001.55,38.0
2019-08-26 23:30,50.63046,-96.9807833333333,6.5,10.4,292,975.78,20.2,70,20.33,0.0,1001.44,38.0
2019-08-26 23:40,50.6304583333333,-96.9807833333333,11.5,14.9,5,975.82,19.3,83,20.31,0.0,1001.54,38.0
